Year,Month,Day,Hour,Minute,Value (Times are PST for temperature in C)
2016,06,16,00,00,8.30
2016,06,16,00,01,8.20
2016,06,16,00,02,8.20
2016,06,16,00,03,8.20
2016,06,16,00,04,8.20
2016,06,16,00,05,8.20
2016,06,16,00,06,8.20
2016,06,16,00,07,8.10
2016,06,16,00,08,8.10
2016,06,16,00,09,8.10
2016,06,16,00,10,8.10
2016,06,16,00,11,8.10
2016,06,16,00,12,8.10
2016,06,16,00,13,8.10
2016,06,16,00,14,8.00
2016,06,16,00,15,8.00
2016,06,16,00,16,8.00
2016,06,16,00,17,8.00
2016,06,16,00,18,7.90
2016,06,16,00,19,7.90
2016,06,16,00,20,7.90
2016,06,16,00,21,7.90
2016,06,16,00,22,7.90
2016,06,16,00,23,7.90
2016,06,16,00,24,7.90
2016,06,16,00,25,7.90
2016,06,16,00,26,7.80
2016,06,16,00,27,7.80
2016,06,16,00,28,7.80
2016,06,16,00,29,7.80
2016,06,16,00,30,7.80
2016,06,16,00,31,7.80
2016,06,16,00,32,7.80
2016,06,16,00,33,7.70
2016,06,16,00,34,7.70
2016,06,16,00,35,7.70
2016,06,16,00,36,7.70
2016,06,16,00,37,7.70
2016,06,16,00,38,7.60
2016,06,16,00,39,7.60
2016,06,16,00,40,7.60
2016,06,16,00,41,7.60
2016,06,16,00,42,7.60
2016,06,16,00,43,7.60
2016,06,16,00,44,7.60
2016,06,16,00,45,7.60
2016,06,16,00,46,7.60
2016,06,16,00,47,7.60
2016,06,16,00,48,7.60
2016,06,16,00,49,7.60
2016,06,16,00,50,7.60
2016,06,16,00,51,7.60
2016,06,16,00,52,7.50
2016,06,16,00,53,7.50
2016,06,16,00,54,7.50
2016,06,16,00,55,7.50
2016,06,16,00,56,7.50
2016,06,16,00,57,7.40
2016,06,16,00,58,7.40
2016,06,16,00,59,7.40
2016,06,16,01,00,7.40
2016,06,16,01,01,7.30
2016,06,16,01,02,7.30
2016,06,16,01,03,7.30
2016,06,16,01,04,7.30
2016,06,16,01,05,7.30
2016,06,16,01,06,7.30
2016,06,16,01,07,7.20
2016,06,16,01,08,7.20
2016,06,16,01,09,7.20
2016,06,16,01,10,7.20
2016,06,16,01,11,7.20
2016,06,16,01,12,7.20
2016,06,16,01,13,7.20
2016,06,16,01,14,7.20
2016,06,16,01,15,7.20
2016,06,16,01,16,7.20
2016,06,16,01,17,7.20
2016,06,16,01,18,7.20
2016,06,16,01,19,7.20
2016,06,16,01,20,7.20
2016,06,16,01,21,7.20
2016,06,16,01,22,7.20
2016,06,16,01,23,7.20
2016,06,16,01,24,7.20
2016,06,16,01,25,7.20
2016,06,16,01,26,7.20
2016,06,16,01,27,7.20
2016,06,16,01,28,7.20
2016,06,16,01,29,7.20
2016,06,16,01,30,7.20
2016,06,16,01,31,7.20
2016,06,16,01,32,7.20
2016,06,16,01,33,7.20
2016,06,16,01,34,7.20
2016,06,16,01,35,7.20
2016,06,16,01,36,7.10
2016,06,16,01,37,7.10
2016,06,16,01,38,7.10
2016,06,16,01,39,7.00
2016,06,16,01,40,7.00
2016,06,16,01,41,7.00
2016,06,16,01,42,6.90
2016,06,16,01,43,6.90
2016,06,16,01,44,6.90
2016,06,16,01,45,7.00
2016,06,16,01,46,7.00
2016,06,16,01,47,7.00
2016,06,16,01,48,6.90
2016,06,16,01,49,6.90
2016,06,16,01,50,6.90
2016,06,16,01,51,6.90
2016,06,16,01,52,6.90
2016,06,16,01,53,6.90
2016,06,16,01,54,7.00
2016,06,16,01,55,7.00
2016,06,16,01,56,7.00
2016,06,16,01,57,7.00
2016,06,16,01,58,7.00
2016,06,16,01,59,7.00
2016,06,16,02,00,7.00
2016,06,16,02,01,7.00
2016,06,16,02,02,7.00
2016,06,16,02,03,6.90
2016,06,16,02,04,6.90
2016,06,16,02,05,6.90
2016,06,16,02,06,6.90
2016,06,16,02,07,6.90
2016,06,16,02,08,6.90
2016,06,16,02,09,6.90
2016,06,16,02,10,6.90
2016,06,16,02,11,6.90
2016,06,16,02,12,6.90
2016,06,16,02,13,6.90
2016,06,16,02,14,6.80
2016,06,16,02,15,6.80
2016,06,16,02,16,6.70
2016,06,16,02,17,6.70
2016,06,16,02,18,6.70
2016,06,16,02,19,6.70
2016,06,16,02,20,6.70
2016,06,16,02,21,6.70
2016,06,16,02,22,6.70
2016,06,16,02,23,6.70
2016,06,16,02,24,6.70
2016,06,16,02,25,6.70
2016,06,16,02,26,6.70
2016,06,16,02,27,6.70
2016,06,16,02,28,6.70
2016,06,16,02,29,6.70
2016,06,16,02,30,6.70
2016,06,16,02,31,6.80
2016,06,16,02,32,6.80
2016,06,16,02,33,6.80
2016,06,16,02,34,6.80
2016,06,16,02,35,6.80
2016,06,16,02,36,6.80
2016,06,16,02,37,6.80
2016,06,16,02,38,6.80
2016,06,16,02,39,6.80
2016,06,16,02,40,6.90
2016,06,16,02,41,6.80
2016,06,16,02,42,6.80
2016,06,16,02,43,6.80
2016,06,16,02,44,6.80
2016,06,16,02,45,6.80
2016,06,16,02,46,6.80
2016,06,16,02,47,6.70
2016,06,16,02,48,6.70
2016,06,16,02,49,6.70
2016,06,16,02,50,6.70
2016,06,16,02,51,6.70
2016,06,16,02,52,6.60
2016,06,16,02,53,6.60
2016,06,16,02,54,6.60
2016,06,16,02,55,6.60
2016,06,16,02,56,6.60
2016,06,16,02,57,6.60
2016,06,16,02,58,6.60
2016,06,16,02,59,6.60
2016,06,16,03,00,6.60
2016,06,16,03,01,6.60
2016,06,16,03,02,6.60
2016,06,16,03,03,6.60
2016,06,16,03,04,6.60
2016,06,16,03,05,6.70
2016,06,16,03,06,6.70
2016,06,16,03,07,6.70
2016,06,16,03,08,6.70
2016,06,16,03,09,6.70
2016,06,16,03,10,6.70
2016,06,16,03,11,6.60
2016,06,16,03,12,6.60
2016,06,16,03,13,6.60
2016,06,16,03,14,6.60
2016,06,16,03,15,6.60
2016,06,16,03,16,6.60
2016,06,16,03,17,6.60
2016,06,16,03,18,6.60
2016,06,16,03,19,6.60
2016,06,16,03,20,6.60
2016,06,16,03,21,6.70
2016,06,16,03,22,6.80
2016,06,16,03,23,6.80
2016,06,16,03,24,6.80
2016,06,16,03,25,6.90
2016,06,16,03,26,7.00
2016,06,16,03,27,7.00
2016,06,16,03,28,7.00
2016,06,16,03,29,7.00
2016,06,16,03,30,7.00
2016,06,16,03,31,7.00
2016,06,16,03,32,7.00
2016,06,16,03,33,7.00
2016,06,16,03,34,6.90
2016,06,16,03,35,7.00
2016,06,16,03,36,7.00
2016,06,16,03,37,7.00
2016,06,16,03,38,7.00
2016,06,16,03,39,7.00
2016,06,16,03,40,6.90
2016,06,16,03,41,6.90
2016,06,16,03,42,6.90
2016,06,16,03,43,6.90
2016,06,16,03,44,6.90
2016,06,16,03,45,6.80
2016,06,16,03,46,6.80
2016,06,16,03,47,6.80
2016,06,16,03,48,6.80
2016,06,16,03,49,6.80
2016,06,16,03,50,6.80
2016,06,16,03,51,6.80
2016,06,16,03,52,6.80
2016,06,16,03,53,6.80
2016,06,16,03,54,6.80
2016,06,16,03,55,6.80
2016,06,16,03,56,6.80
2016,06,16,03,57,6.80
2016,06,16,03,58,6.80
2016,06,16,03,59,6.80
2016,06,16,04,00,6.80
2016,06,16,04,01,6.80
2016,06,16,04,02,6.80
2016,06,16,04,03,6.80
2016,06,16,04,04,6.80
2016,06,16,04,05,6.80
2016,06,16,04,06,6.80
2016,06,16,04,07,6.80
2016,06,16,04,08,6.80
2016,06,16,04,09,6.80
2016,06,16,04,10,6.80
2016,06,16,04,11,6.80
2016,06,16,04,12,6.70
2016,06,16,04,13,6.70
2016,06,16,04,14,6.70
2016,06,16,04,15,6.70
2016,06,16,04,16,6.70
2016,06,16,04,17,6.70
2016,06,16,04,18,6.70
2016,06,16,04,19,6.70
2016,06,16,04,20,6.70
2016,06,16,04,21,6.70
2016,06,16,04,22,6.70
2016,06,16,04,23,6.70
2016,06,16,04,24,6.70
2016,06,16,04,25,6.70
2016,06,16,04,26,6.80
2016,06,16,04,27,6.80
2016,06,16,04,28,6.80
2016,06,16,04,29,6.80
2016,06,16,04,30,6.80
2016,06,16,04,31,6.80
2016,06,16,04,32,6.80
2016,06,16,04,33,6.80
2016,06,16,04,34,6.80
2016,06,16,04,35,6.80
2016,06,16,04,36,6.80
2016,06,16,04,37,6.80
2016,06,16,04,38,6.70
2016,06,16,04,39,6.70
2016,06,16,04,40,6.60
2016,06,16,04,41,6.60
2016,06,16,04,42,6.50
2016,06,16,04,43,6.40
2016,06,16,04,44,6.40
2016,06,16,04,45,6.40
2016,06,16,04,46,6.30
2016,06,16,04,47,6.30
2016,06,16,04,48,6.30
2016,06,16,04,49,6.30
2016,06,16,04,50,6.20
2016,06,16,04,51,6.20
2016,06,16,04,52,6.20
2016,06,16,04,53,6.20
2016,06,16,04,54,6.20
2016,06,16,04,55,6.20
2016,06,16,04,56,6.20
2016,06,16,04,57,6.20
2016,06,16,04,58,6.20
2016,06,16,04,59,6.20
2016,06,16,05,00,6.30
2016,06,16,05,01,6.30
2016,06,16,05,02,6.30
2016,06,16,05,03,6.30
2016,06,16,05,04,6.30
2016,06,16,05,05,6.30
2016,06,16,05,06,6.30
2016,06,16,05,07,6.20
2016,06,16,05,08,6.20
2016,06,16,05,09,6.10
2016,06,16,05,10,6.10
2016,06,16,05,11,6.10
2016,06,16,05,12,6.00
2016,06,16,05,13,5.90
2016,06,16,05,14,5.90
2016,06,16,05,15,5.90
2016,06,16,05,16,5.90
2016,06,16,05,17,5.90
2016,06,16,05,18,5.90
2016,06,16,05,19,5.90
2016,06,16,05,20,5.90
2016,06,16,05,21,5.90
2016,06,16,05,22,5.90
2016,06,16,05,23,5.90
2016,06,16,05,24,5.90
2016,06,16,05,25,5.90
2016,06,16,05,26,5.90
2016,06,16,05,27,5.90
2016,06,16,05,28,5.90
2016,06,16,05,29,5.90
2016,06,16,05,30,5.90
2016,06,16,05,31,6.00
2016,06,16,05,32,6.00
2016,06,16,05,33,6.00
2016,06,16,05,34,6.00
2016,06,16,05,35,6.00
2016,06,16,05,36,6.00
2016,06,16,05,37,6.00
2016,06,16,05,38,6.00
2016,06,16,05,39,6.00
2016,06,16,05,40,6.00
2016,06,16,05,41,6.00
2016,06,16,05,42,6.10
2016,06,16,05,43,6.10
2016,06,16,05,44,6.20
2016,06,16,05,45,6.20
2016,06,16,05,46,6.20
2016,06,16,05,47,6.20
2016,06,16,05,48,6.30
2016,06,16,05,49,6.30
2016,06,16,05,50,6.30
2016,06,16,05,51,6.30
2016,06,16,05,52,6.30
2016,06,16,05,53,6.30
2016,06,16,05,54,6.30
2016,06,16,05,55,6.30
2016,06,16,05,56,6.30
2016,06,16,05,57,6.40
2016,06,16,05,58,6.40
2016,06,16,05,59,6.40
2016,06,16,06,00,6.40
2016,06,16,06,01,6.50
2016,06,16,06,02,6.50
2016,06,16,06,03,6.50
2016,06,16,06,04,6.60
2016,06,16,06,05,6.60
2016,06,16,06,06,6.60
2016,06,16,06,07,6.60
2016,06,16,06,08,6.70
2016,06,16,06,09,6.70
2016,06,16,06,10,6.70
2016,06,16,06,11,6.70
2016,06,16,06,12,6.70
2016,06,16,06,13,6.70
2016,06,16,06,14,6.80
2016,06,16,06,15,6.80
2016,06,16,06,16,6.80
2016,06,16,06,17,6.90
2016,06,16,06,18,6.90
2016,06,16,06,19,6.90
2016,06,16,06,20,7.00
2016,06,16,06,21,7.10
2016,06,16,06,22,7.20
2016,06,16,06,23,7.20
2016,06,16,06,24,7.20
2016,06,16,06,25,7.30
2016,06,16,06,26,7.50
2016,06,16,06,27,7.70
2016,06,16,06,28,7.80
2016,06,16,06,29,8.00
2016,06,16,06,30,8.20
2016,06,16,06,31,8.30
2016,06,16,06,32,8.50
2016,06,16,06,33,8.70
2016,06,16,06,34,8.80
2016,06,16,06,35,8.90
2016,06,16,06,36,9.10
2016,06,16,06,37,9.20
2016,06,16,06,38,9.30
2016,06,16,06,39,9.40
2016,06,16,06,40,9.50
2016,06,16,06,41,9.50
2016,06,16,06,42,9.60
2016,06,16,06,43,9.60
2016,06,16,06,44,9.60
2016,06,16,06,45,9.60
2016,06,16,06,46,9.60
2016,06,16,06,47,9.60
2016,06,16,06,48,9.60
2016,06,16,06,49,9.50
2016,06,16,06,50,9.50
2016,06,16,06,51,9.50
2016,06,16,06,52,9.50
2016,06,16,06,53,9.60
2016,06,16,06,54,9.60
2016,06,16,06,55,9.60
2016,06,16,06,56,9.60
2016,06,16,06,57,9.80
2016,06,16,06,58,9.90
2016,06,16,06,59,10.00
2016,06,16,07,00,10.10
2016,06,16,07,01,10.20
2016,06,16,07,02,10.30
2016,06,16,07,03,10.40
2016,06,16,07,04,10.50
2016,06,16,07,05,10.60
2016,06,16,07,06,10.60
2016,06,16,07,07,10.70
2016,06,16,07,08,10.80
2016,06,16,07,09,10.80
2016,06,16,07,10,10.90
2016,06,16,07,11,10.90
2016,06,16,07,12,11.00
2016,06,16,07,13,11.10
2016,06,16,07,14,11.10
2016,06,16,07,15,11.20
2016,06,16,07,16,11.20
2016,06,16,07,17,11.30
2016,06,16,07,18,11.30
2016,06,16,07,19,11.40
2016,06,16,07,20,11.40
2016,06,16,07,21,11.50
2016,06,16,07,22,11.50
2016,06,16,07,23,11.60
2016,06,16,07,24,11.60
2016,06,16,07,25,11.60
2016,06,16,07,26,11.70
2016,06,16,07,27,11.70
2016,06,16,07,28,11.80
2016,06,16,07,29,11.80
2016,06,16,07,30,11.90
2016,06,16,07,31,11.90
2016,06,16,07,32,12.00
2016,06,16,07,33,12.10
2016,06,16,07,34,12.20
2016,06,16,07,35,12.20
2016,06,16,07,36,12.30
2016,06,16,07,37,12.30
2016,06,16,07,38,12.30
2016,06,16,07,39,12.20
2016,06,16,07,40,12.20
2016,06,16,07,41,12.10
2016,06,16,07,42,12.10
2016,06,16,07,43,12.00
2016,06,16,07,44,11.90
2016,06,16,07,45,11.90
2016,06,16,07,46,11.90
2016,06,16,07,47,12.00
2016,06,16,07,48,12.00
2016,06,16,07,49,12.10
2016,06,16,07,50,12.20
2016,06,16,07,51,12.20
2016,06,16,07,52,12.40
2016,06,16,07,53,12.50
2016,06,16,07,54,12.60
2016,06,16,07,55,12.70
2016,06,16,07,56,12.80
2016,06,16,07,57,12.90
2016,06,16,07,58,13.00
2016,06,16,07,59,13.20
2016,06,16,08,00,13.20
2016,06,16,08,01,13.20
2016,06,16,08,02,13.20
2016,06,16,08,03,13.20
2016,06,16,08,04,13.20
2016,06,16,08,05,13.20
2016,06,16,08,06,13.10
2016,06,16,08,07,13.10
2016,06,16,08,08,13.10
2016,06,16,08,09,13.20
2016,06,16,08,10,13.20
2016,06,16,08,11,13.20
2016,06,16,08,12,13.30
2016,06,16,08,13,13.30
2016,06,16,08,14,13.30
2016,06,16,08,15,13.30
2016,06,16,08,16,13.20
2016,06,16,08,17,13.20
2016,06,16,08,18,13.20
2016,06,16,08,19,13.20
2016,06,16,08,20,13.20
2016,06,16,08,21,13.20
2016,06,16,08,22,13.20
2016,06,16,08,23,13.20
2016,06,16,08,24,13.20
2016,06,16,08,25,13.10
2016,06,16,08,26,13.10
2016,06,16,08,27,13.20
2016,06,16,08,28,13.20
2016,06,16,08,29,13.10
2016,06,16,08,30,13.10
2016,06,16,08,31,13.00
2016,06,16,08,32,12.90
2016,06,16,08,33,12.90
2016,06,16,08,34,12.90
2016,06,16,08,35,12.90
2016,06,16,08,36,12.90
2016,06,16,08,37,12.90
2016,06,16,08,38,12.90
2016,06,16,08,39,13.00
2016,06,16,08,40,13.00
2016,06,16,08,41,13.10
2016,06,16,08,42,13.20
2016,06,16,08,43,13.30
2016,06,16,08,44,13.40
2016,06,16,08,45,13.60
2016,06,16,08,46,13.60
2016,06,16,08,47,13.60
2016,06,16,08,48,13.70
2016,06,16,08,49,13.80
2016,06,16,08,50,13.80
2016,06,16,08,51,13.90
2016,06,16,08,52,14.00
2016,06,16,08,53,14.00
2016,06,16,08,54,14.10
2016,06,16,08,55,14.20
2016,06,16,08,56,14.30
2016,06,16,08,57,14.40
2016,06,16,08,58,14.40
2016,06,16,08,59,14.30
2016,06,16,09,00,14.30
2016,06,16,09,01,14.30
2016,06,16,09,02,14.40
2016,06,16,09,03,14.40
2016,06,16,09,04,14.40
2016,06,16,09,05,14.50
2016,06,16,09,06,14.50
2016,06,16,09,07,14.60
2016,06,16,09,08,14.70
2016,06,16,09,09,14.80
2016,06,16,09,10,14.80
2016,06,16,09,11,14.70
2016,06,16,09,12,14.50
2016,06,16,09,13,14.40
2016,06,16,09,14,14.30
2016,06,16,09,15,14.20
2016,06,16,09,16,14.10
2016,06,16,09,17,14.00
2016,06,16,09,18,13.90
2016,06,16,09,19,13.90
2016,06,16,09,20,13.90
2016,06,16,09,21,13.80
2016,06,16,09,22,13.70
2016,06,16,09,23,13.50
2016,06,16,09,24,13.40
2016,06,16,09,25,13.50
2016,06,16,09,26,13.60
2016,06,16,09,27,13.70
2016,06,16,09,28,13.80
2016,06,16,09,29,13.80
2016,06,16,09,30,13.80
2016,06,16,09,31,13.80
2016,06,16,09,32,13.90
2016,06,16,09,33,14.00
2016,06,16,09,34,14.00
2016,06,16,09,35,14.10
2016,06,16,09,36,14.10
2016,06,16,09,37,14.10
2016,06,16,09,38,14.00
2016,06,16,09,39,14.00
2016,06,16,09,40,14.10
2016,06,16,09,41,14.20
2016,06,16,09,42,14.20
2016,06,16,09,43,14.20
2016,06,16,09,44,14.10
2016,06,16,09,45,14.10
2016,06,16,09,46,14.00
2016,06,16,09,47,13.90
2016,06,16,09,48,13.90
2016,06,16,09,49,13.80
2016,06,16,09,50,13.70
2016,06,16,09,51,13.60
2016,06,16,09,52,13.50
2016,06,16,09,53,13.40
2016,06,16,09,54,13.40
2016,06,16,09,55,13.30
2016,06,16,09,56,13.40
2016,06,16,09,57,13.40
2016,06,16,09,58,13.40
2016,06,16,09,59,13.30
2016,06,16,10,00,13.20
2016,06,16,10,01,13.20
2016,06,16,10,02,13.20
2016,06,16,10,03,13.20
2016,06,16,10,04,13.30
2016,06,16,10,05,13.30
2016,06,16,10,06,13.30
2016,06,16,10,07,13.20
2016,06,16,10,08,13.30
2016,06,16,10,09,13.30
2016,06,16,10,10,13.30
2016,06,16,10,11,13.30
2016,06,16,10,12,13.30
2016,06,16,10,13,13.30
2016,06,16,10,14,13.30
2016,06,16,10,15,13.30
2016,06,16,10,16,13.30
2016,06,16,10,17,13.30
2016,06,16,10,18,13.30
2016,06,16,10,19,13.20
2016,06,16,10,20,13.20
2016,06,16,10,21,13.10
2016,06,16,10,22,13.10
2016,06,16,10,23,13.10
2016,06,16,10,24,13.10
2016,06,16,10,25,13.10
2016,06,16,10,26,13.10
2016,06,16,10,27,13.10
2016,06,16,10,28,13.10
2016,06,16,10,29,13.10
2016,06,16,10,30,13.10
2016,06,16,10,31,13.10
2016,06,16,10,32,13.10
2016,06,16,10,33,13.10
2016,06,16,10,34,13.10
2016,06,16,10,35,13.10
2016,06,16,10,36,13.10
2016,06,16,10,37,13.10
2016,06,16,10,38,13.10
2016,06,16,10,39,13.20
2016,06,16,10,40,13.20
2016,06,16,10,41,13.20
2016,06,16,10,42,13.30
2016,06,16,10,43,13.50
2016,06,16,10,44,13.70
2016,06,16,10,45,13.80
2016,06,16,10,46,13.80
2016,06,16,10,47,13.80
2016,06,16,10,48,13.90
2016,06,16,10,49,14.00
2016,06,16,10,50,14.10
2016,06,16,10,51,14.00
2016,06,16,10,52,14.00
2016,06,16,10,53,14.10
2016,06,16,10,54,14.20
2016,06,16,10,55,14.20
2016,06,16,10,56,14.10
2016,06,16,10,57,14.10
2016,06,16,10,58,14.20
2016,06,16,10,59,14.10
2016,06,16,11,00,14.10
2016,06,16,11,01,14.10
2016,06,16,11,02,14.10
2016,06,16,11,03,14.10
2016,06,16,11,04,14.10
2016,06,16,11,05,14.00
2016,06,16,11,06,14.00
2016,06,16,11,07,13.90
2016,06,16,11,08,13.80
2016,06,16,11,09,13.70
2016,06,16,11,10,13.70
2016,06,16,11,11,13.70
2016,06,16,11,12,13.80
2016,06,16,11,13,13.80
2016,06,16,11,14,13.90
2016,06,16,11,15,13.90
2016,06,16,11,16,14.00
2016,06,16,11,17,14.00
2016,06,16,11,18,13.90
2016,06,16,11,19,13.90
2016,06,16,11,20,13.80
2016,06,16,11,21,13.80
2016,06,16,11,22,13.80
2016,06,16,11,23,13.80
2016,06,16,11,24,13.80
2016,06,16,11,25,13.80
2016,06,16,11,26,13.80
2016,06,16,11,27,13.90
2016,06,16,11,28,14.00
2016,06,16,11,29,14.10
2016,06,16,11,30,14.20
2016,06,16,11,31,14.30
2016,06,16,11,32,14.40
2016,06,16,11,33,14.30
2016,06,16,11,34,14.30
2016,06,16,11,35,14.20
2016,06,16,11,36,14.20
2016,06,16,11,37,14.20
2016,06,16,11,38,14.20
2016,06,16,11,39,14.20
2016,06,16,11,40,14.30
2016,06,16,11,41,14.40
2016,06,16,11,42,14.50
2016,06,16,11,43,14.60
2016,06,16,11,44,14.80
2016,06,16,11,45,15.00
2016,06,16,11,46,15.00
2016,06,16,11,47,15.20
2016,06,16,11,48,15.10
2016,06,16,11,49,15.00
2016,06,16,11,50,15.00
2016,06,16,11,51,15.00
2016,06,16,11,52,15.00
2016,06,16,11,53,14.80
2016,06,16,11,54,14.60
2016,06,16,11,55,14.50
2016,06,16,11,56,14.50
2016,06,16,11,57,14.50
2016,06,16,11,58,14.50
2016,06,16,11,59,14.50
2016,06,16,12,00,14.50
2016,06,16,12,01,14.40
2016,06,16,12,02,14.40
2016,06,16,12,03,14.40
2016,06,16,12,04,14.40
2016,06,16,12,05,14.40
2016,06,16,12,06,14.30
2016,06,16,12,07,14.30
2016,06,16,12,08,14.30
2016,06,16,12,09,14.30
2016,06,16,12,10,14.20
2016,06,16,12,11,14.20
2016,06,16,12,12,14.10
2016,06,16,12,13,14.10
2016,06,16,12,14,14.10
2016,06,16,12,15,14.20
2016,06,16,12,16,14.30
2016,06,16,12,17,14.30
2016,06,16,12,18,14.30
2016,06,16,12,19,14.30
2016,06,16,12,20,14.30
2016,06,16,12,21,14.20
2016,06,16,12,22,14.20
2016,06,16,12,23,14.20
2016,06,16,12,24,14.20
2016,06,16,12,25,14.20
2016,06,16,12,26,14.20
2016,06,16,12,27,14.20
2016,06,16,12,28,14.20
2016,06,16,12,29,14.30
2016,06,16,12,30,14.20
2016,06,16,12,31,14.30
2016,06,16,12,32,14.20
2016,06,16,12,33,14.10
2016,06,16,12,34,14.10
2016,06,16,12,35,14.10
2016,06,16,12,36,14.10
2016,06,16,12,37,14.00
2016,06,16,12,38,14.00
2016,06,16,12,39,14.00
2016,06,16,12,40,14.00
2016,06,16,12,41,13.90
2016,06,16,12,42,13.90
2016,06,16,12,43,13.90
2016,06,16,12,44,13.90
2016,06,16,12,45,13.90
2016,06,16,12,46,13.90
2016,06,16,12,47,13.90
2016,06,16,12,48,13.90
2016,06,16,12,49,13.90
2016,06,16,12,50,13.90
2016,06,16,12,51,13.80
2016,06,16,12,52,13.80
2016,06,16,12,53,13.80
2016,06,16,12,54,13.80
2016,06,16,12,55,13.80
2016,06,16,12,56,13.80
2016,06,16,12,57,13.80
2016,06,16,12,58,13.80
2016,06,16,12,59,13.80
2016,06,16,13,00,13.80
2016,06,16,13,01,13.80
2016,06,16,13,02,13.80
2016,06,16,13,03,13.80
2016,06,16,13,04,13.80
2016,06,16,13,05,13.80
2016,06,16,13,06,13.80
2016,06,16,13,07,13.80
2016,06,16,13,08,13.80
2016,06,16,13,09,13.80
2016,06,16,13,10,13.80
2016,06,16,13,11,13.90
2016,06,16,13,12,14.00
2016,06,16,13,13,14.00
2016,06,16,13,14,14.10
2016,06,16,13,15,14.10
2016,06,16,13,16,14.10
2016,06,16,13,17,14.20
2016,06,16,13,18,14.30
2016,06,16,13,19,14.30
2016,06,16,13,20,14.30
2016,06,16,13,21,14.30
2016,06,16,13,22,14.30
2016,06,16,13,23,14.40
2016,06,16,13,24,14.40
2016,06,16,13,25,14.50
2016,06,16,13,26,14.50
2016,06,16,13,27,14.50
2016,06,16,13,28,14.40
2016,06,16,13,29,14.30
2016,06,16,13,30,14.30
2016,06,16,13,31,14.30
2016,06,16,13,32,14.40
2016,06,16,13,33,14.40
2016,06,16,13,34,14.30
2016,06,16,13,35,14.30
2016,06,16,13,36,14.30
2016,06,16,13,37,14.30
2016,06,16,13,38,14.30
2016,06,16,13,39,14.30
2016,06,16,13,40,14.30
2016,06,16,13,41,14.30
2016,06,16,13,42,14.30
2016,06,16,13,43,14.30
2016,06,16,13,44,14.30
2016,06,16,13,45,14.30
2016,06,16,13,46,14.30
2016,06,16,13,47,14.30
2016,06,16,13,48,14.30
2016,06,16,13,49,14.30
2016,06,16,13,50,14.30
2016,06,16,13,51,14.20
2016,06,16,13,52,14.20
2016,06,16,13,53,14.20
2016,06,16,13,54,14.30
2016,06,16,13,55,14.30
2016,06,16,13,56,14.30
2016,06,16,13,57,14.40
2016,06,16,13,58,14.40
2016,06,16,13,59,14.40
2016,06,16,14,00,14.40
2016,06,16,14,01,14.40
2016,06,16,14,02,14.40
2016,06,16,14,03,14.30
2016,06,16,14,04,14.30
2016,06,16,14,05,14.30
2016,06,16,14,06,14.40
2016,06,16,14,07,14.30
2016,06,16,14,08,14.30
2016,06,16,14,09,14.40
2016,06,16,14,10,14.40
2016,06,16,14,11,14.40
2016,06,16,14,12,14.40
2016,06,16,14,13,14.50
2016,06,16,14,14,14.50
2016,06,16,14,15,14.60
2016,06,16,14,16,14.50
2016,06,16,14,17,14.40
2016,06,16,14,18,14.30
2016,06,16,14,19,14.20
2016,06,16,14,20,14.20
2016,06,16,14,21,14.20
2016,06,16,14,22,14.10
2016,06,16,14,23,14.10
2016,06,16,14,24,14.10
2016,06,16,14,25,14.10
2016,06,16,14,26,14.10
2016,06,16,14,27,14.10
2016,06,16,14,28,14.10
2016,06,16,14,29,14.10
2016,06,16,14,30,14.20
2016,06,16,14,31,14.20
2016,06,16,14,32,14.30
2016,06,16,14,33,14.30
2016,06,16,14,34,14.40
2016,06,16,14,35,14.60
2016,06,16,14,36,14.60
2016,06,16,14,37,14.60
2016,06,16,14,38,14.60
2016,06,16,14,39,14.70
2016,06,16,14,40,14.70
2016,06,16,14,41,14.70
2016,06,16,14,42,14.70
2016,06,16,14,43,14.80
2016,06,16,14,44,14.90
2016,06,16,14,45,15.00
2016,06,16,14,46,15.00
2016,06,16,14,47,15.00
2016,06,16,14,48,15.00
2016,06,16,14,49,15.00
2016,06,16,14,50,15.00
2016,06,16,14,51,15.00
2016,06,16,14,52,15.00
2016,06,16,14,53,15.00
2016,06,16,14,54,15.10
2016,06,16,14,55,15.20
2016,06,16,14,56,15.20
2016,06,16,14,57,15.30
2016,06,16,14,58,15.30
2016,06,16,14,59,15.20
2016,06,16,15,00,15.20
2016,06,16,15,01,15.20
2016,06,16,15,02,15.20
2016,06,16,15,03,15.20
2016,06,16,15,04,15.20
2016,06,16,15,05,15.20
2016,06,16,15,06,15.10
2016,06,16,15,07,15.00
2016,06,16,15,08,15.00
2016,06,16,15,09,15.00
2016,06,16,15,10,15.00
2016,06,16,15,11,15.00
2016,06,16,15,12,15.00
2016,06,16,15,13,15.00
2016,06,16,15,14,15.00
2016,06,16,15,15,15.00
2016,06,16,15,16,15.00
2016,06,16,15,17,14.90
2016,06,16,15,18,14.80
2016,06,16,15,19,14.80
2016,06,16,15,20,14.90
2016,06,16,15,21,15.00
2016,06,16,15,22,15.00
2016,06,16,15,23,15.00
2016,06,16,15,24,15.00
2016,06,16,15,25,15.00
2016,06,16,15,26,15.00
2016,06,16,15,27,15.00
2016,06,16,15,28,14.90
2016,06,16,15,29,14.60
2016,06,16,15,30,14.50
2016,06,16,15,31,14.30
2016,06,16,15,32,14.20
2016,06,16,15,33,14.10
2016,06,16,15,34,14.00
2016,06,16,15,35,14.00
2016,06,16,15,36,14.00
2016,06,16,15,37,14.00
2016,06,16,15,38,14.10
2016,06,16,15,39,14.10
2016,06,16,15,40,14.30
2016,06,16,15,41,14.40
2016,06,16,15,42,14.40
2016,06,16,15,43,14.50
2016,06,16,15,44,14.50
2016,06,16,15,45,14.50
2016,06,16,15,46,14.60
2016,06,16,15,47,14.70
2016,06,16,15,48,14.70
2016,06,16,15,49,14.70
2016,06,16,15,50,14.80
2016,06,16,15,51,14.80
2016,06,16,15,52,14.80
2016,06,16,15,53,14.80
2016,06,16,15,54,14.80
2016,06,16,15,55,14.80
2016,06,16,15,56,14.80
2016,06,16,15,57,14.90
2016,06,16,15,58,15.00
2016,06,16,15,59,15.00
2016,06,16,16,00,15.00
2016,06,16,16,01,15.00
2016,06,16,16,02,15.00
2016,06,16,16,03,15.10
2016,06,16,16,04,15.10
2016,06,16,16,05,15.10
2016,06,16,16,06,15.10
2016,06,16,16,07,15.10
2016,06,16,16,08,15.00
2016,06,16,16,09,15.00
2016,06,16,16,10,15.00
2016,06,16,16,11,15.00
2016,06,16,16,12,15.10
2016,06,16,16,13,15.20
2016,06,16,16,14,15.30
2016,06,16,16,15,15.30
2016,06,16,16,16,15.30
2016,06,16,16,17,15.30
2016,06,16,16,18,15.20
2016,06,16,16,19,15.20
2016,06,16,16,20,15.30
2016,06,16,16,21,15.20
2016,06,16,16,22,15.20
2016,06,16,16,23,15.20
2016,06,16,16,24,15.20
2016,06,16,16,25,15.20
2016,06,16,16,26,15.20
2016,06,16,16,27,15.20
2016,06,16,16,28,15.20
2016,06,16,16,29,15.20
2016,06,16,16,30,15.20
2016,06,16,16,31,15.30
2016,06,16,16,32,15.30
2016,06,16,16,33,15.30
2016,06,16,16,34,15.30
2016,06,16,16,35,15.30
2016,06,16,16,36,15.40
2016,06,16,16,37,15.50
2016,06,16,16,38,15.50
2016,06,16,16,39,15.60
2016,06,16,16,40,15.60
2016,06,16,16,41,15.70
2016,06,16,16,42,15.70
2016,06,16,16,43,15.70
2016,06,16,16,44,15.70
2016,06,16,16,45,15.70
2016,06,16,16,46,15.70
2016,06,16,16,47,15.70
2016,06,16,16,48,15.70
2016,06,16,16,49,15.70
2016,06,16,16,50,15.80
2016,06,16,16,51,15.80
2016,06,16,16,52,15.90
2016,06,16,16,53,15.90
2016,06,16,16,54,15.80
2016,06,16,16,55,15.70
2016,06,16,16,56,15.60
2016,06,16,16,57,15.60
2016,06,16,16,58,15.50
2016,06,16,16,59,15.50
2016,06,16,17,00,15.50
2016,06,16,17,01,15.50
2016,06,16,17,02,15.60
2016,06,16,17,03,15.60
2016,06,16,17,04,15.70
2016,06,16,17,05,15.80
2016,06,16,17,06,15.80
2016,06,16,17,07,15.90
2016,06,16,17,08,15.90
2016,06,16,17,09,15.90
2016,06,16,17,10,15.90
2016,06,16,17,11,15.90
2016,06,16,17,12,15.90
2016,06,16,17,13,15.80
2016,06,16,17,14,15.80
2016,06,16,17,15,15.90
2016,06,16,17,16,16.00
2016,06,16,17,17,16.10
2016,06,16,17,18,16.10
2016,06,16,17,19,16.20
2016,06,16,17,20,16.20
2016,06,16,17,21,16.20
2016,06,16,17,22,16.20
2016,06,16,17,23,16.20
2016,06,16,17,24,16.30
2016,06,16,17,25,16.30
2016,06,16,17,26,16.30
2016,06,16,17,27,16.30
2016,06,16,17,28,16.40
2016,06,16,17,29,16.30
2016,06,16,17,30,16.30
2016,06,16,17,31,16.30
2016,06,16,17,32,16.30
2016,06,16,17,33,16.30
2016,06,16,17,34,16.20
2016,06,16,17,35,16.20
2016,06,16,17,36,16.10
2016,06,16,17,37,16.10